Year,Month,Day,Hour,Minute,Value (Times are PST for temperature in C)
2011,07,23,00,00,11.60
2011,07,23,00,01,11.60
2011,07,23,00,02,11.60
2011,07,23,00,03,11.60
2011,07,23,00,04,11.60
2011,07,23,00,05,11.50
2011,07,23,00,06,11.50
2011,07,23,00,07,11.50
2011,07,23,00,08,11.50
2011,07,23,00,09,11.50
2011,07,23,00,10,11.50
2011,07,23,00,11,11.50
2011,07,23,00,12,11.50
2011,07,23,00,13,11.50
2011,07,23,00,14,11.50
2011,07,23,00,15,11.40
2011,07,23,00,16,11.40
2011,07,23,00,17,11.40
2011,07,23,00,18,11.40
2011,07,23,00,19,11.40
2011,07,23,00,20,11.40
2011,07,23,00,21,11.40
2011,07,23,00,22,11.40
2011,07,23,00,23,11.40
2011,07,23,00,24,11.40
2011,07,23,00,25,11.40
2011,07,23,00,26,11.40
2011,07,23,00,27,11.30
2011,07,23,00,28,11.30
2011,07,23,00,29,11.30
2011,07,23,00,30,11.30
2011,07,23,00,31,11.30
2011,07,23,00,32,11.30
2011,07,23,00,33,11.30
2011,07,23,00,34,11.30
2011,07,23,00,35,11.30
2011,07,23,00,36,11.30
2011,07,23,00,37,11.30
2011,07,23,00,38,11.30
2011,07,23,00,39,11.30
2011,07,23,00,40,11.30
2011,07,23,00,41,11.20
2011,07,23,00,42,11.20
2011,07,23,00,43,11.20
2011,07,23,00,44,11.20
2011,07,23,00,45,11.20
2011,07,23,00,46,11.20
2011,07,23,00,47,11.20
2011,07,23,00,48,11.10
2011,07,23,00,49,11.10
2011,07,23,00,50,11.10
2011,07,23,00,51,11.10
2011,07,23,00,52,11.10
2011,07,23,00,53,11.10
2011,07,23,00,54,11.10
2011,07,23,00,55,11.10
2011,07,23,00,56,11.00
2011,07,23,00,57,11.00
2011,07,23,00,58,11.00
2011,07,23,00,59,11.00
2011,07,23,01,00,11.00
2011,07,23,01,01,10.90
2011,07,23,01,02,10.90
2011,07,23,01,03,10.90
2011,07,23,01,04,10.90
2011,07,23,01,05,10.90
2011,07,23,01,06,10.90
2011,07,23,01,07,10.90
2011,07,23,01,08,10.80
2011,07,23,01,09,10.80
2011,07,23,01,10,10.80
2011,07,23,01,11,10.80
2011,07,23,01,12,10.80
2011,07,23,01,13,10.80
2011,07,23,01,14,10.80
2011,07,23,01,15,10.80
2011,07,23,01,16,10.70
2011,07,23,01,17,10.70
2011,07,23,01,18,10.70
2011,07,23,01,19,10.70
2011,07,23,01,20,10.70
2011,07,23,01,21,10.70
2011,07,23,01,22,10.70
2011,07,23,01,23,10.70
2011,07,23,01,24,10.60
2011,07,23,01,25,10.60
2011,07,23,01,26,10.60
2011,07,23,01,27,10.60
2011,07,23,01,28,10.60
2011,07,23,01,29,10.60
2011,07,23,01,30,10.60
2011,07,23,01,31,10.60
2011,07,23,01,32,10.60
2011,07,23,01,33,10.60
2011,07,23,01,34,10.60
2011,07,23,01,35,10.60
2011,07,23,01,36,10.50
2011,07,23,01,37,10.50
2011,07,23,01,38,10.50
2011,07,23,01,39,10.50
2011,07,23,01,40,10.50
2011,07,23,01,41,10.50
2011,07,23,01,42,10.50
2011,07,23,01,43,10.50
2011,07,23,01,44,10.50
2011,07,23,01,45,10.50
2011,07,23,01,46,10.40
2011,07,23,01,47,10.40
2011,07,23,01,48,10.40
2011,07,23,01,49,10.50
2011,07,23,01,50,10.50
2011,07,23,01,51,10.50
2011,07,23,01,52,10.50
2011,07,23,01,53,10.40
2011,07,23,01,54,10.40
2011,07,23,01,55,10.40
2011,07,23,01,56,10.40
2011,07,23,01,57,10.40
2011,07,23,01,58,10.40
2011,07,23,01,59,10.40
2011,07,23,02,00,10.40
2011,07,23,02,01,10.40
2011,07,23,02,02,10.30
2011,07,23,02,03,10.30
2011,07,23,02,04,10.30
2011,07,23,02,05,10.30
2011,07,23,02,06,10.30
2011,07,23,02,07,10.30
2011,07,23,02,08,10.30
2011,07,23,02,09,10.30
2011,07,23,02,10,10.30
2011,07,23,02,11,10.30
2011,07,23,02,12,10.30
2011,07,23,02,13,10.30
2011,07,23,02,14,10.30
2011,07,23,02,15,10.30
2011,07,23,02,16,10.30
2011,07,23,02,17,10.30
2011,07,23,02,18,10.30
2011,07,23,02,19,10.30
2011,07,23,02,20,10.30
2011,07,23,02,21,10.20
2011,07,23,02,22,10.20
2011,07,23,02,23,10.20
2011,07,23,02,24,10.20
2011,07,23,02,25,10.20
2011,07,23,02,26,10.20
2011,07,23,02,27,10.20
2011,07,23,02,28,10.10
2011,07,23,02,29,10.10
2011,07,23,02,30,10.10
2011,07,23,02,31,10.10
2011,07,23,02,32,10.10
2011,07,23,02,33,10.10
2011,07,23,02,34,10.10
2011,07,23,02,35,10.10
2011,07,23,02,36,10.10
2011,07,23,02,37,10.00
2011,07,23,02,38,10.00
2011,07,23,02,39,10.00
2011,07,23,02,40,10.00
2011,07,23,02,41,10.00
2011,07,23,02,42,10.00
2011,07,23,02,43,10.00
2011,07,23,02,44,9.90
2011,07,23,02,45,9.90
2011,07,23,02,46,9.90
2011,07,23,02,47,9.90
2011,07,23,02,48,9.90
2011,07,23,02,49,9.90
2011,07,23,02,50,9.90
2011,07,23,02,51,9.90
2011,07,23,02,52,9.80
2011,07,23,02,53,9.80
2011,07,23,02,54,9.80
2011,07,23,02,55,9.80
2011,07,23,02,56,9.80
2011,07,23,02,57,9.80
2011,07,23,02,58,9.80
2011,07,23,02,59,9.80
2011,07,23,03,00,9.80
2011,07,23,03,01,9.80
2011,07,23,03,02,9.80
2011,07,23,03,06,9.80
2011,07,23,03,07,9.80
2011,07,23,03,08,9.70
2011,07,23,03,09,9.70
2011,07,23,03,10,9.70
2011,07,23,03,11,9.70
2011,07,23,03,12,9.70
2011,07,23,03,13,9.70
2011,07,23,03,14,9.70
2011,07,23,03,15,9.70
2011,07,23,03,16,9.70
2011,07,23,03,17,9.70
2011,07,23,03,18,9.70
2011,07,23,03,19,9.70
2011,07,23,03,20,9.70
2011,07,23,03,21,9.60
2011,07,23,03,22,9.60
2011,07,23,03,23,9.60
2011,07,23,03,24,9.60
2011,07,23,03,25,9.60
2011,07,23,03,26,9.60
2011,07,23,03,27,9.60
2011,07,23,03,28,9.60
2011,07,23,03,29,9.60
2011,07,23,03,30,9.60
2011,07,23,03,31,9.60
2011,07,23,03,32,9.50
2011,07,23,03,33,9.50
2011,07,23,03,34,9.50
2011,07,23,03,35,9.50
2011,07,23,03,36,9.50
2011,07,23,03,37,9.50
2011,07,23,03,38,9.50
2011,07,23,03,39,9.50
2011,07,23,03,40,9.50
2011,07,23,03,41,9.50
2011,07,23,03,42,9.50
2011,07,23,03,43,9.40
2011,07,23,03,44,9.50
2011,07,23,03,45,9.40
2011,07,23,03,46,9.40
2011,07,23,03,47,9.40
2011,07,23,03,48,9.40
2011,07,23,03,49,9.40
2011,07,23,03,50,9.40
2011,07,23,03,51,9.40
2011,07,23,03,52,9.40
2011,07,23,03,53,9.40
2011,07,23,03,54,9.40
2011,07,23,03,55,9.40
2011,07,23,03,56,9.40
2011,07,23,03,57,9.40
2011,07,23,03,58,9.40
2011,07,23,03,59,9.40
2011,07,23,04,00,9.40
2011,07,23,04,01,9.40
2011,07,23,04,02,9.40
2011,07,23,04,03,9.40
2011,07,23,04,04,9.40
2011,07,23,04,05,9.40
2011,07,23,04,06,9.40
2011,07,23,04,07,9.40
2011,07,23,04,08,9.40
2011,07,23,04,09,9.40
2011,07,23,04,10,9.30
2011,07,23,04,11,9.30
2011,07,23,04,12,9.30
2011,07,23,04,13,9.30
2011,07,23,04,14,9.30
2011,07,23,04,15,9.30
2011,07,23,04,16,9.30
2011,07,23,04,17,9.30
2011,07,23,04,18,9.30
2011,07,23,04,19,9.30
2011,07,23,04,20,9.30
2011,07,23,04,21,9.30
2011,07,23,04,22,9.20
2011,07,23,04,23,9.20
2011,07,23,04,24,9.20
2011,07,23,04,25,9.20
2011,07,23,04,26,9.20
2011,07,23,04,27,9.20
2011,07,23,04,28,9.20
2011,07,23,04,29,9.20
2011,07,23,04,30,9.20
2011,07,23,04,31,9.20
2011,07,23,04,32,9.20
2011,07,23,04,33,9.20
2011,07,23,04,34,9.20
2011,07,23,04,35,9.20
2011,07,23,04,36,9.20
2011,07,23,04,37,9.20
2011,07,23,04,38,9.20
2011,07,23,04,39,9.20
2011,07,23,04,40,9.20
2011,07,23,04,41,9.20
2011,07,23,04,42,9.20
2011,07,23,04,43,9.20
2011,07,23,04,44,9.10
2011,07,23,04,45,9.10
2011,07,23,04,46,9.10
2011,07,23,04,47,9.10
2011,07,23,04,48,9.10
2011,07,23,04,49,9.10
2011,07,23,04,50,9.10
2011,07,23,04,51,9.10
2011,07,23,04,52,9.10
2011,07,23,04,53,9.10
2011,07,23,04,54,9.10
2011,07,23,04,55,9.10
2011,07,23,04,56,9.10
2011,07,23,04,57,9.10
2011,07,23,04,58,9.10
2011,07,23,04,59,9.10
2011,07,23,05,00,9.10
2011,07,23,05,01,9.10
2011,07,23,05,02,9.10
2011,07,23,05,03,9.10
2011,07,23,05,04,9.10
2011,07,23,05,05,9.10
2011,07,23,05,06,9.10
2011,07,23,05,07,9.10
2011,07,23,05,08,9.10
2011,07,23,05,09,9.10
2011,07,23,05,10,9.10
2011,07,23,05,11,9.10
2011,07,23,05,12,9.10
2011,07,23,05,13,9.10
2011,07,23,05,14,9.00
2011,07,23,05,15,9.00
2011,07,23,05,16,9.00
2011,07,23,05,17,9.00
2011,07,23,05,18,9.00
2011,07,23,05,19,9.00
2011,07,23,05,20,9.00
2011,07,23,05,21,8.90
2011,07,23,05,22,8.90
2011,07,23,05,23,8.90
2011,07,23,05,24,8.90
2011,07,23,05,25,8.90
2011,07,23,05,26,8.90
2011,07,23,05,27,8.90
2011,07,23,05,28,8.90
2011,07,23,05,29,8.90
2011,07,23,05,30,8.90
2011,07,23,05,31,8.90
2011,07,23,05,32,8.90
2011,07,23,05,33,8.90
2011,07,23,05,34,8.90
2011,07,23,05,35,8.90
2011,07,23,05,36,8.90
2011,07,23,05,37,8.90
2011,07,23,05,38,8.90
2011,07,23,05,39,8.90
2011,07,23,05,40,8.80
2011,07,23,05,41,8.80
2011,07,23,05,42,8.80
2011,07,23,05,43,8.80
2011,07,23,05,44,8.80
2011,07,23,05,45,8.80
2011,07,23,05,46,8.80
2011,07,23,05,47,8.80
2011,07,23,05,48,8.80
2011,07,23,05,49,8.80
2011,07,23,05,50,8.80
2011,07,23,05,51,8.80
2011,07,23,05,52,8.80
2011,07,23,05,53,8.80
2011,07,23,05,54,8.80
2011,07,23,05,55,8.80
2011,07,23,05,56,8.80
2011,07,23,05,57,8.80
2011,07,23,05,58,8.80
2011,07,23,05,59,8.80
2011,07,23,06,00,8.80
2011,07,23,06,01,8.80
2011,07,23,06,02,8.80
2011,07,23,06,03,8.80
2011,07,23,06,04,8.80
2011,07,23,06,05,8.80
2011,07,23,06,06,8.80
2011,07,23,06,07,8.80
2011,07,23,06,08,8.80
2011,07,23,06,09,8.80
2011,07,23,06,10,8.80
2011,07,23,06,11,8.80
2011,07,23,06,12,8.80
2011,07,23,06,13,8.80
2011,07,23,06,14,8.80
2011,07,23,06,15,8.80
2011,07,23,06,16,8.80
2011,07,23,06,17,8.80
2011,07,23,06,18,8.80
2011,07,23,06,19,8.80
2011,07,23,06,20,8.80
2011,07,23,06,21,8.80
2011,07,23,06,22,8.80
2011,07,23,06,23,8.80
2011,07,23,06,24,8.80
2011,07,23,06,25,8.80
2011,07,23,06,26,8.80
2011,07,23,06,27,8.80
2011,07,23,06,28,8.80
2011,07,23,06,29,8.80
2011,07,23,06,30,8.80
2011,07,23,06,31,8.80
2011,07,23,06,32,8.80
2011,07,23,06,33,8.80
2011,07,23,06,34,8.80
2011,07,23,06,35,8.80
2011,07,23,06,36,8.80
2011,07,23,06,37,8.80
2011,07,23,06,38,8.80
2011,07,23,06,39,8.80
2011,07,23,06,40,8.80
2011,07,23,06,41,8.80
2011,07,23,06,42,8.80
2011,07,23,06,43,8.80
2011,07,23,06,44,8.80
2011,07,23,06,45,8.90
2011,07,23,06,46,8.90
2011,07,23,06,47,8.90
2011,07,23,06,48,8.90
2011,07,23,06,49,8.90
2011,07,23,06,50,8.90
2011,07,23,06,51,8.90
2011,07,23,06,52,8.90
2011,07,23,06,53,9.00
2011,07,23,06,54,9.00
2011,07,23,06,55,9.00
2011,07,23,06,56,9.00
2011,07,23,06,57,9.00
2011,07,23,06,58,9.00
2011,07,23,06,59,9.00
2011,07,23,07,00,9.00
2011,07,23,07,01,9.00
2011,07,23,07,02,9.00
2011,07,23,07,03,9.00
2011,07,23,07,04,9.00
2011,07,23,07,05,9.00
2011,07,23,07,06,9.00
2011,07,23,07,07,9.00
2011,07,23,07,08,9.10
2011,07,23,07,09,9.10
2011,07,23,07,10,9.10
2011,07,23,07,11,9.10
2011,07,23,07,12,9.10
2011,07,23,07,13,9.10
2011,07,23,07,14,9.10
2011,07,23,07,15,9.10
2011,07,23,07,16,9.10
2011,07,23,07,17,9.10
2011,07,23,07,18,9.10
2011,07,23,07,19,9.10
2011,07,23,07,20,9.10
2011,07,23,07,21,9.10
2011,07,23,07,22,9.10
2011,07,23,07,23,9.20
2011,07,23,07,24,9.20
2011,07,23,07,25,9.20
2011,07,23,07,26,9.20
2011,07,23,07,27,9.20
2011,07,23,07,28,9.20
2011,07,23,07,29,9.20
2011,07,23,07,30,9.20
2011,07,23,07,31,9.20
2011,07,23,07,32,9.20
2011,07,23,07,33,9.30
2011,07,23,07,34,9.30
2011,07,23,07,35,9.30
2011,07,23,07,36,9.30
2011,07,23,07,37,9.30
2011,07,23,07,38,9.40
2011,07,23,07,39,9.40
2011,07,23,07,40,9.40
2011,07,23,07,41,9.40
2011,07,23,07,42,9.40
2011,07,23,07,43,9.40
2011,07,23,07,44,9.40
2011,07,23,07,45,9.40
2011,07,23,07,46,9.50
2011,07,23,07,47,9.50
2011,07,23,07,48,9.50
2011,07,23,07,49,9.50
2011,07,23,07,50,9.50
2011,07,23,07,51,9.60
2011,07,23,07,52,9.60
2011,07,23,07,53,9.60
2011,07,23,07,54,9.60
2011,07,23,07,55,9.60
2011,07,23,07,56,9.60
2011,07,23,07,57,9.70
2011,07,23,07,58,9.70
2011,07,23,07,59,9.70
2011,07,23,08,00,9.80
2011,07,23,08,01,9.80
2011,07,23,08,02,9.80
2011,07,23,08,03,9.80
2011,07,23,08,04,9.90
2011,07,23,08,05,9.90
2011,07,23,08,06,9.90
2011,07,23,08,07,9.90
2011,07,23,08,08,10.00
2011,07,23,08,09,10.00
2011,07,23,08,10,10.10
2011,07,23,08,11,10.10
2011,07,23,08,12,10.10
2011,07,23,08,13,10.20
2011,07,23,08,14,10.20
2011,07,23,08,15,10.30
2011,07,23,08,16,10.30
2011,07,23,08,17,10.30
2011,07,23,08,18,10.30
2011,07,23,08,19,10.30
2011,07,23,08,20,10.40
2011,07,23,08,21,10.40
2011,07,23,08,22,10.40
2011,07,23,08,23,10.40
2011,07,23,08,24,10.50
2011,07,23,08,25,10.50
2011,07,23,08,26,10.60
2011,07,23,08,27,10.70
2011,07,23,08,28,10.70
2011,07,23,08,29,10.70
2011,07,23,08,30,10.80
2011,07,23,08,31,10.80
2011,07,23,08,32,10.80
2011,07,23,08,33,10.90
2011,07,23,08,34,10.90
2011,07,23,08,35,10.90
2011,07,23,08,36,11.00
2011,07,23,08,37,11.00
2011,07,23,08,38,11.00
2011,07,23,08,39,11.10
2011,07,23,08,40,11.10
2011,07,23,08,41,11.10
2011,07,23,08,42,11.10
2011,07,23,08,43,11.20
2011,07,23,08,44,11.20
2011,07,23,08,45,11.20
2011,07,23,08,46,11.20
2011,07,23,08,47,11.30
2011,07,23,08,48,11.30
2011,07,23,08,49,11.30
2011,07,23,08,50,11.40
2011,07,23,08,51,11.40
2011,07,23,08,52,11.40
2011,07,23,08,53,11.50
2011,07,23,08,54,11.50
2011,07,23,08,55,11.50
2011,07,23,08,56,11.60
2011,07,23,08,57,11.60
2011,07,23,08,58,11.60
2011,07,23,08,59,11.70
2011,07,23,09,00,11.70
2011,07,23,09,01,11.70
2011,07,23,09,02,11.70
2011,07,23,09,03,11.80
2011,07,23,09,04,11.80
2011,07,23,09,05,11.80
2011,07,23,09,06,11.80
2011,07,23,09,07,11.80
2011,07,23,09,08,11.80
2011,07,23,09,09,11.90
2011,07,23,09,10,11.90
2011,07,23,09,11,11.90
2011,07,23,09,12,11.90
2011,07,23,09,13,11.90
2011,07,23,09,14,12.00
2011,07,23,09,15,12.00
2011,07,23,09,16,12.00
2011,07,23,09,17,12.10
2011,07,23,09,18,12.10
2011,07,23,09,19,12.10
2011,07,23,09,20,12.10
2011,07,23,09,21,12.20
2011,07,23,09,22,12.20
2011,07,23,09,23,12.20
2011,07,23,09,24,12.20
2011,07,23,09,25,12.20
2011,07,23,09,26,12.30
2011,07,23,09,27,12.30
2011,07,23,09,28,12.30
2011,07,23,09,29,12.30
2011,07,23,09,30,12.30
2011,07,23,09,31,12.40
2011,07,23,09,32,12.40
2011,07,23,09,33,12.40
2011,07,23,09,34,12.40
2011,07,23,09,35,12.50
2011,07,23,09,36,12.50
2011,07,23,09,37,12.50
2011,07,23,09,38,12.60
2011,07,23,09,39,12.60
2011,07,23,09,40,12.60
2011,07,23,09,41,12.70
2011,07,23,09,42,12.70
2011,07,23,09,43,12.70
2011,07,23,09,44,12.80
2011,07,23,09,45,12.80
2011,07,23,09,46,12.90
2011,07,23,09,47,13.00
2011,07,23,09,48,13.10
2011,07,23,09,49,13.20
2011,07,23,09,50,13.30
2011,07,23,09,51,13.40
2011,07,23,09,52,13.50
2011,07,23,09,53,13.70
2011,07,23,09,54,13.70
2011,07,23,09,55,13.80
2011,07,23,09,56,13.90
2011,07,23,09,57,14.00
2011,07,23,09,58,14.10
2011,07,23,09,59,14.20
2011,07,23,10,00,14.30
2011,07,23,10,01,14.40
2011,07,23,10,02,14.50
2011,07,23,10,03,14.60
2011,07,23,10,04,14.70
2011,07,23,10,05,14.80
2011,07,23,10,06,15.00
2011,07,23,10,07,15.00
2011,07,23,10,08,15.00
2011,07,23,10,09,15.00
2011,07,23,10,10,15.00
2011,07,23,10,11,15.00
2011,07,23,10,12,15.00
2011,07,23,10,13,15.10
2011,07,23,10,14,15.20
2011,07,23,10,15,15.20
2011,07,23,10,16,15.20
2011,07,23,10,17,15.20
2011,07,23,10,18,15.30
2011,07,23,10,19,15.30
2011,07,23,10,20,15.30
2011,07,23,10,21,15.40
2011,07,23,10,22,15.40
2011,07,23,10,23,15.40
2011,07,23,10,24,15.50
2011,07,23,10,25,15.50
2011,07,23,10,26,15.60
2011,07,23,10,27,15.60
2011,07,23,10,28,15.70
2011,07,23,10,29,15.70
2011,07,23,10,30,15.80
2011,07,23,10,31,15.80
2011,07,23,10,32,15.90
2011,07,23,10,33,15.90
2011,07,23,10,34,15.90
2011,07,23,10,35,15.90
2011,07,23,10,36,16.00
2011,07,23,10,37,16.10
2011,07,23,10,38,16.10
2011,07,23,10,39,16.20
2011,07,23,10,40,16.30
2011,07,23,10,41,16.40
2011,07,23,10,42,16.40
2011,07,23,10,43,16.50
2011,07,23,10,44,16.60
2011,07,23,10,45,16.70
2011,07,23,10,46,16.80
2011,07,23,10,47,16.80
2011,07,23,10,48,16.90
2011,07,23,10,49,17.00
2011,07,23,10,50,17.10
2011,07,23,10,51,17.20
2011,07,23,10,52,17.30
2011,07,23,10,53,17.40
2011,07,23,10,54,17.50
2011,07,23,10,55,17.60
2011,07,23,10,56,17.70
2011,07,23,10,57,17.70
2011,07,23,10,58,17.80
2011,07,23,10,59,17.90
2011,07,23,11,00,18.00
2011,07,23,11,01,18.10
2011,07,23,11,02,18.20
2011,07,23,11,03,18.30
2011,07,23,11,04,18.40
2011,07,23,11,05,18.50
2011,07,23,11,06,18.60
2011,07,23,11,07,18.70
2011,07,23,11,08,18.70
2011,07,23,11,09,18.80
2011,07,23,11,10,18.80
2011,07,23,11,11,18.90
2011,07,23,11,12,18.90
2011,07,23,11,13,19.00
2011,07,23,11,14,19.00
2011,07,23,11,15,19.10
2011,07,23,11,16,19.20
2011,07,23,11,17,19.20
2011,07,23,11,18,19.30
2011,07,23,11,19,19.40
2011,07,23,11,20,19.40
2011,07,23,11,21,19.50
2011,07,23,11,22,19.50
2011,07,23,11,23,19.60
2011,07,23,11,24,19.70
2011,07,23,11,25,19.70
2011,07,23,11,26,19.80
2011,07,23,11,27,19.80
2011,07,23,11,28,19.80
2011,07,23,11,29,19.90
2011,07,23,11,30,19.90
2011,07,23,11,31,19.90
2011,07,23,11,32,19.90
2011,07,23,11,33,20.00
2011,07,23,11,34,20.10
2011,07,23,11,35,20.10
2011,07,23,11,36,20.10
2011,07,23,11,37,20.20
2011,07,23,11,38,20.20
2011,07,23,11,39,20.30
2011,07,23,11,40,20.30
2011,07,23,11,41,20.30
2011,07,23,11,42,20.20
2011,07,23,11,43,20.20
2011,07,23,11,44,20.20
2011,07,23,11,45,20.20
2011,07,23,11,46,20.20
2011,07,23,11,47,20.30
2011,07,23,11,48,20.40
2011,07,23,11,49,20.50
2011,07,23,11,50,20.50
2011,07,23,11,51,20.60
2011,07,23,11,52,20.60
2011,07,23,11,53,20.70
2011,07,23,11,54,20.80
2011,07,23,11,55,20.90
2011,07,23,11,56,20.90
2011,07,23,11,57,21.00
2011,07,23,11,58,21.00
2011,07,23,11,59,21.10
2011,07,23,12,00,21.20
2011,07,23,12,01,21.20
2011,07,23,12,02,21.30
2011,07,23,12,03,21.40
2011,07,23,12,04,21.50
2011,07,23,12,05,21.50
2011,07,23,12,06,21.50
2011,07,23,12,07,21.60
2011,07,23,12,08,21.60
2011,07,23,12,09,21.60
2011,07,23,12,10,21.60
2011,07,23,12,11,21.60
2011,07,23,12,12,21.70
2011,07,23,12,13,21.70
2011,07,23,12,14,21.80
2011,07,23,12,15,21.80
2011,07,23,12,16,21.80
2011,07,23,12,17,21.80
2011,07,23,12,18,21.80
2011,07,23,12,19,21.80
2011,07,23,12,20,21.80
2011,07,23,12,21,21.80
2011,07,23,12,22,21.90
2011,07,23,12,23,21.90
2011,07,23,12,24,21.90
2011,07,23,12,25,21.90
2011,07,23,12,26,22.00
2011,07,23,12,27,22.00
2011,07,23,12,28,21.90
2011,07,23,12,29,21.90
2011,07,23,12,30,21.80
2011,07,23,12,31,21.80
2011,07,23,12,32,21.90
2011,07,23,12,33,21.90
2011,07,23,12,34,21.90
2011,07,23,12,35,21.90
2011,07,23,12,36,21.90
2011,07,23,12,37,21.90
2011,07,23,12,38,21.90
2011,07,23,12,39,21.80
2011,07,23,12,40,21.70
2011,07,23,12,41,21.60
2011,07,23,12,42,21.50
2011,07,23,12,43,21.50
2011,07,23,12,44,21.50
2011,07,23,12,45,21.40
2011,07,23,12,46,21.40
2011,07,23,12,47,21.40
2011,07,23,12,48,21.40
2011,07,23,12,49,21.40
2011,07,23,12,50,21.40
2011,07,23,12,51,21.50
2011,07,23,12,52,21.50
2011,07,23,12,53,21.60
2011,07,23,12,54,21.60
2011,07,23,12,55,21.70
2011,07,23,12,56,21.60
2011,07,23,12,57,21.50
2011,07,23,12,58,21.40
2011,07,23,12,59,21.50
2011,07,23,13,00,21.50
2011,07,23,13,01,21.40
2011,07,23,13,02,21.40
2011,07,23,13,03,21.50
2011,07,23,13,04,21.60
2011,07,23,13,05,21.70
2011,07,23,13,06,21.80
2011,07,23,13,07,21.80
2011,07,23,13,08,21.90
2011,07,23,13,09,22.00
2011,07,23,13,10,22.00
2011,07,23,13,11,22.00
2011,07,23,13,12,22.10
2011,07,23,13,13,22.10
2011,07,23,13,14,22.10
2011,07,23,13,15,22.10
2011,07,23,13,16,22.10
2011,07,23,13,17,22.10
2011,07,23,13,18,22.10
2011,07,23,13,19,22.20
2011,07,23,13,20,22.30
2011,07,23,13,21,22.30
2011,07,23,13,22,22.40
2011,07,23,13,23,22.50
2011,07,23,13,24,22.60
2011,07,23,13,25,22.60
2011,07,23,13,26,22.70
2011,07,23,13,27,22.70
2011,07,23,13,28,22.70
2011,07,23,13,29,22.60
2011,07,23,13,30,22.50
2011,07,23,13,31,22.60
2011,07,23,13,32,22.50
2011,07,23,13,33,22.40
2011,07,23,13,34,22.50
2011,07,23,13,35,22.60
2011,07,23,13,36,22.70
2011,07,23,13,37,22.70
2011,07,23,13,38,22.70
2011,07,23,13,39,22.70
2011,07,23,13,40,22.80
2011,07,23,13,41,22.90
2011,07,23,13,42,23.00
2011,07,23,13,43,23.10
2011,07,23,13,44,23.20
2011,07,23,13,45,23.40
2011,07,23,13,46,23.40
2011,07,23,13,47,23.40
2011,07,23,13,48,23.30
2011,07,23,13,49,23.30
2011,07,23,13,50,23.30
2011,07,23,13,51,23.30
2011,07,23,13,52,23.30
2011,07,23,13,53,23.30
2011,07,23,13,54,23.30
2011,07,23,13,55,23.30
2011,07,23,13,56,23.30
2011,07,23,13,57,23.40
2011,07,23,13,58,23.40
2011,07,23,13,59,23.40
2011,07,23,14,00,23.40
2011,07,23,14,01,23.50
2011,07,23,14,02,23.60
2011,07,23,14,03,23.60
2011,07,23,14,04,23.60
2011,07,23,14,05,23.60
2011,07,23,14,06,23.60
2011,07,23,14,07,23.60
2011,07,23,14,08,23.70
2011,07,23,14,09,23.70
2011,07,23,14,10,23.80
2011,07,23,14,11,23.80
2011,07,23,14,12,23.80
2011,07,23,14,13,23.90
2011,07,23,14,14,23.90
2011,07,23,14,15,24.00
2011,07,23,14,16,24.10
2011,07,23,14,17,24.10
2011,07,23,14,18,24.20
2011,07,23,14,19,24.30
2011,07,23,14,20,24.30
2011,07,23,14,21,24.30
2011,07,23,14,22,24.40
2011,07,23,14,23,24.50
2011,07,23,14,24,24.60
2011,07,23,14,25,24.60
2011,07,23,14,26,24.70
2011,07,23,14,27,24.70
2011,07,23,14,28,24.80
2011,07,23,14,29,24.80
2011,07,23,14,30,24.80
2011,07,23,14,31,24.70
2011,07,23,14,32,24.70
2011,07,23,14,33,24.70
2011,07,23,14,34,24.60
2011,07,23,14,35,24.60
2011,07,23,14,36,24.50
2011,07,23,14,37,24.50
2011,07,23,14,38,24.50
2011,07,23,14,39,24.50
2011,07,23,14,40,24.50
2011,07,23,14,41,24.50
2011,07,23,14,42,24.50
2011,07,23,14,43,24.50
2011,07,23,14,44,24.50
2011,07,23,14,45,24.50
2011,07,23,14,46,24.50
2011,07,23,14,47,24.40
2011,07,23,14,48,24.30
2011,07,23,14,49,24.20
2011,07,23,14,50,24.20
2011,07,23,14,51,24.20
2011,07,23,14,52,24.20
2011,07,23,14,53,24.20
2011,07,23,14,54,24.20
2011,07,23,14,55,24.10
2011,07,23,14,56,24.00
2011,07,23,14,57,23.90
2011,07,23,14,58,23.90
2011,07,23,14,59,23.80
2011,07,23,15,00,23.80
2011,07,23,15,01,23.80
2011,07,23,15,02,23.80
2011,07,23,15,03,23.80
2011,07,23,15,04,23.70
2011,07,23,15,05,23.70
2011,07,23,15,06,23.70
2011,07,23,15,07,23.60
2011,07,23,15,08,23.60
2011,07,23,15,09,23.60
2011,07,23,15,10,23.50
2011,07,23,15,11,23.50
2011,07,23,15,12,23.50
2011,07,23,15,13,23.40
2011,07,23,15,14,23.40
2011,07,23,15,15,23.40
2011,07,23,15,16,23.40
2011,07,23,15,17,23.40
2011,07,23,15,18,23.40
2011,07,23,15,19,23.40
2011,07,23,15,20,23.30
2011,07,23,15,21,23.30
2011,07,23,15,22,23.30
2011,07,23,15,23,23.30
2011,07,23,15,24,23.20
2011,07,23,15,25,23.20
2011,07,23,15,26,23.20
2011,07,23,15,27,23.20
2011,07,23,15,28,23.20
2011,07,23,15,29,23.20
2011,07,23,15,30,23.20
2011,07,23,15,31,23.10
2011,07,23,15,32,23.10
2011,07,23,15,33,23.10
2011,07,23,15,34,23.00
2011,07,23,15,35,23.00
2011,07,23,15,36,23.00
2011,07,23,15,37,23.00
2011,07,23,15,38,23.00
2011,07,23,15,39,23.00
2011,07,23,15,40,23.00
2011,07,23,15,41,23.10
2011,07,23,15,42,23.10
2011,07,23,15,43,23.20
2011,07,23,15,44,23.30
2011,07,23,15,45,23.40
2011,07,23,15,46,23.50
2011,07,23,15,47,23.60
2011,07,23,15,48,23.70
2011,07,23,15,49,23.80
2011,07,23,15,50,23.90
2011,07,23,15,51,24.00
2011,07,23,15,52,24.00
2011,07,23,15,53,24.10
2011,07,23,15,54,24.10
2011,07,23,15,55,24.10
2011,07,23,15,56,24.10
2011,07,23,15,57,24.10
2011,07,23,15,58,24.20
2011,07,23,15,59,24.20
2011,07,23,16,00,24.30
2011,07,23,16,01,24.30
2011,07,23,16,02,24.40
2011,07,23,16,03,24.40
2011,07,23,16,04,24.40
2011,07,23,16,05,24.40
2011,07,23,16,06,24.40
2011,07,23,16,07,24.40
2011,07,23,16,08,24.40
2011,07,23,16,09,24.40
2011,07,23,16,10,24.30
2011,07,23,16,11,24.30
2011,07,23,16,12,24.30
2011,07,23,16,13,24.30
2011,07,23,16,14,24.30
2011,07,23,16,15,24.30
2011,07,23,16,16,24.30
2011,07,23,16,17,24.20
2011,07,23,16,18,24.20
2011,07,23,16,19,24.30
2011,07,23,16,20,24.30
2011,07,23,16,21,24.40
2011,07,23,16,22,24.40
2011,07,23,16,23,24.40
2011,07,23,16,24,24.40
2011,07,23,16,25,24.30
2011,07,23,16,26,24.20
2011,07,23,16,27,24.10
2011,07,23,16,28,24.10
2011,07,23,16,29,24.10
2011,07,23,16,30,24.20
2011,07,23,16,31,24.20
2011,07,23,16,32,24.20
2011,07,23,16,33,24.30
2011,07,23,16,34,24.30
2011,07,23,16,35,24.30
2011,07,23,16,36,24.30
2011,07,23,16,37,24.30
2011,07,23,16,38,24.30
2011,07,23,16,39,24.30
2011,07,23,16,40,24.30
2011,07,23,16,41,24.40
2011,07,23,16,42,24.40
2011,07,23,16,43,24.40
2011,07,23,16,44,24.40
2011,07,23,16,45,24.50
2011,07,23,16,46,24.60
2011,07,23,16,47,24.70
2011,07,23,16,48,24.70
2011,07,23,16,49,24.80
2011,07,23,16,50,24.80
2011,07,23,16,51,24.80
2011,07,23,16,52,24.70
2011,07,23,16,53,24.80
2011,07,23,16,54,24.80
2011,07,23,16,55,24.80
2011,07,23,16,56,24.80
2011,07,23,16,57,24.80
2011,07,23,16,58,24.80
2011,07,23,16,59,24.80
2011,07,23,17,00,24.80
2011,07,23,17,01,24.80
2011,07,23,17,02,24.80
2011,07,23,17,03,24.80
2011,07,23,17,04,24.80
2011,07,23,17,05,24.90
2011,07,23,17,06,24.90
2011,07,23,17,07,24.80
2011,07,23,17,08,24.80
2011,07,23,17,09,24.80
2011,07,23,17,10,24.80
2011,07,23,17,11,24.80
2011,07,23,17,12,24.70
2011,07,23,17,13,24.70
2011,07,23,17,14,24.70
2011,07,23,17,15,24.60
2011,07,23,17,16,24.60
2011,07,23,17,17,24.60
2011,07,23,17,18,24.60
2011,07,23,17,19,24.60
2011,07,23,17,20,24.60
2011,07,23,17,21,24.60
2011,07,23,17,22,24.60
2011,07,23,17,23,24.60
2011,07,23,17,24,24.50
2011,07,23,17,25,24.50
2011,07,23,17,26,24.50
2011,07,23,17,27,24.50
2011,07,23,17,28,24.50
2011,07,23,17,29,24.60
2011,07,23,17,30,24.60
2011,07,23,17,31,24.70
2011,07,23,17,32,24.70
2011,07,23,17,33,24.80
2011,07,23,17,34,24.70
2011,07,23,17,35,24.70
2011,07,23,17,36,24.70